Weather Service Report


247 
ASUS41 KAKQ 240515
RWRAKQ

REGIONAL WEATHER ROUNDUP
NATIONAL WEATHER SERVICE WAKEFIELD VA
1200 AM EST FRI NOV 24 2017

Note: "fair" indicates few or no clouds below 12,000 feet with no
significant weather and/or obstructions to visibility. * = Denotes
station may not report precipitation (e.g., rain,snow,etc.),
thunder or fog.

VAZ042-051-052>054-056-240600-
NORTHERN VIRGINIA
  
CITY           SKY/WX    TMP DP  RH WIND       PRES   REMARKS
WASH NATIONAL  CLEAR     37  28  70 CALM      30.09R                  
DULLES         CLEAR     29  25  85 CALM      30.07S                  
FORT BELVOIR   CLEAR     28  25  87 CALM      30.08S                  
QUANTICO       CLEAR     32  28  85 NW6       30.10S                  
FREDERICKSBRG* CLEAR     28  27  95 CALM      30.08S                  
STAFFORD*      CLEAR     26  26 100 CALM      30.12S                  
WARRENTON      NOT AVBL                                               
CULPEPER*      CLEAR     26  23  88 CALM      30.08S                  
MANASSAS*      CLEAR     24  22  91 CALM      30.09S                  
LEESBURG*      CLEAR     32  28  86 CALM      30.08S                  
WINCHESTER     CLEAR     28  23  80 CALM      30.05S                  
FRONT ROYAL*   CLEAR     28  23  80 MISG      30.04S                  
LURAY*         CLEAR     28  27  93 CALM      30.04F                  
$$

VAZ048-049-060>072-079>083-240600-
CENTRAL AND SOUTH CENTRAL VIRGINIA
  
CITY           SKY/WX    TMP DP  RH WIND       PRES   REMARKS
RICHMOND       CLEAR     29  25  85 N3        30.08S                  
CHESTERFIELD*  NOT AVBL                                               
PETERSBURG*    CLEAR    N/A N/A N/A CALM      30.09S                  
HANOVER        CLEAR     28  25  88 CALM      30.09S                  
TAPPAHANNOCK*    N/A    N/A N/A N/A MISG        N/A                   
QUINTON*       FAIR      28  28 100 CALM      30.09S                  
CHARLOTTSVILLE CLEAR     31  25  78 CALM      30.05S                  
GORDONSVILLE*  CLEAR     26  24  91 CALM      30.06S                  
ORANGE*        CLEAR     27  23  86 CALM      30.07S                  
LOUISA*        CLEAR     26  24  90 CALM      30.11S                  
BUMPASS*       FAIR      27  25  93 SW7       30.07S                  
FARMVILLE*     CLEAR     27  27 100 CALM      30.06F                  
CREWE*         FAIR      26  26 100 CALM      30.07F                  
FORT PICKETT*  FAIR      29  28  95 CALM      30.07S                  
CHASE CITY*    FAIR      29  29 100 CALM      30.07S                  
CLARKSVILLE*   FAIR      30  30 100 CALM      30.07S                  
SOUTH HILL*    CLEAR     28  27  98 CALM      30.12F                  
LAWRENCEVILLE* FAIR      28  27  94 CALM      30.07S                  
EMPORIA*       CLEAR     28  28 100 CALM      30.10S                  
$$

VAZ088>098-240600-
SOUTHEAST VIRGINIA
  
CITY           SKY/WX    TMP DP  RH WIND       PRES   REMARKS
NORFOLK        CLEAR     36  33  89 CALM      30.08S                  
VIRGINIA BEACH NOT AVBL                                               
NORFOLK NAVAL  PTCLDY    34  28  79 CALM      30.09                   
WEST POINT*    CLEAR     26  24  93 CALM      30.11S                  
SALUDA*        FAIR      28  27  99 CALM      30.09S                  
NEWPORT NEWS   CLEAR     28  26  92 CALM      30.09S                  
LANGLEY AFB    CLEAR     31  28  90 CALM      30.08F                  
FORT EUSTIS    CLEAR     31  28  90 CALM      30.06F                  
WILLIAMSBURG*  CLEAR     30  28  93 CALM      30.10S                  
HR EXEC AP*    NOT AVBL                                               
FRANKLIN*      CLEAR     27  26  95 CALM      30.09F                  
US460-WAKEFLD  CLEAR     27  26  96 CALM      30.09S                  
$$

VAZ020-022-025-037-045-240600-
WEST CENTRAL AND SOUTHWEST VIRGINIA
  
CITY           SKY/WX    TMP DP  RH WIND       PRES   REMARKS
STAUNTON*      CLEAR     23  20  90 CALM      30.06S                  
WAYNESBORO*    CLEAR     28  23  81 CALM      30.03S                  
HOT SPRINGS VA CLEAR     36   6  27 W10       29.97S                  
LYNCHBURG      CLEAR     28  23  81 CALM      30.05F                  
DANVILLE       CLEAR     26  26 100 CALM      30.07S                  
SOUTH BOSTON*  FAIR      26  25  95 CALM      30.08R                  
MARTINSVILLE   CLEAR     26  23  89 CALM      30.08F                  
ROANOKE        CLEAR     31  25  78 CALM      30.06F                  
BLACKSBURG     CLEAR     29  25  85 CALM      30.06S                  
DUBLIN*        CLEAR     32  24  71 CALM      30.04S                  
MARION*        CLEAR     31  26  82 CALM      30.05S                  
HILLSVILLE*    CLEAR     33  25  73 S3        30.00F                  
RICHLANDS*     FAIR      38  23  54 CALM      30.02R                  
WISE*          CLEAR     36  27  69 CALM      30.02S                  
ABINGDON*      CLEAR     33  30  87 CALM      30.03R                  
$$

MDZ021>025-VAZ099-100-240600-
SOUTHERN MARYLAND AND THE DELMARVA PENINSULA
  
CITY           SKY/WX    TMP DP  RH WIND       PRES   REMARKS
PATUXENT RIVER CLEAR     28  27  96 CALM      30.09R                  
BAY BRIDGE APT CLEAR     32  28  86 CALM      30.08S                  
LEONARDTOWN    CLEAR     28  27  93 CALM      30.10S                  
DOVER          CLEAR     29  29  97 CALM      30.08S                  
GEORGETOWN     CLEAR     29  25  85 CALM      30.09S                  
EASTON         CLEAR     30  26  84 CALM      30.12R                  
CAMBRIDGE      CLEAR     28  27  93 SE5       30.09S                  
SALISBURY      CLEAR     26  25  96 CALM      30.09S                  
OCEAN CITY     CLEAR     27  25  92 CALM      30.10S                  
WALLOPS ISLAND CLEAR     29  27  92 CALM      30.10S                  
ACCOMACK*      CLEAR     29  27  94 CALM      30.09F                  
$$

NCZ012>017-030>032-240600-
NORTH CENTRAL AND EASTERN NORTH CAROLINA
  
CITY           SKY/WX    TMP DP  RH WIND       PRES   REMARKS
ROANOKE RAPIDS FAIR      30  30 100 CALM      30.08S                  
RALEIGH        PTCLDY    30  28  92 CALM      30.07S                  
ELIZABETH CITY PTCLDY    41  35  79 NE7       30.08F                  
AHOSKIE*       CLEAR     31  31 100 CALM      30.09S                  
EDENTON*       PTCLDY    38  36  92 CALM      30.09F                  
CURRITUCK*     PTCLDY    38  36  92 CALM      30.10S                  
KILL DEVIL HLS PTCLDY    45  36  70 CALM      30.06S                  
MANTEO         PTCLDY    44  38  79 CALM      30.07F                  
CAPE HATTERAS  CLOUDY    50  41  71 NE6       30.04F                  
TARBORO*       NOT AVBL                                               
GOLDSBORO      PTCLDY    37  34  88 CALM      30.06S                  
WASHINGTON     PTCLDY    38  36  92 CALM      30.09R                  
GREENVILLE     PTCLDY    36  36 100 CALM      30.10S                  
NEW BERN       CLOUDY    42  40  92 NE6       30.07S                  
WILMINGTON     CLOUDY    46  41  82 NE8       30.02F                  
$$

VAZ048-240600-
ELSEWHERE
  
CITY           SKY/WX    TMP DP  RH WIND       PRES   REMARKS
HARRISBURG PA  PTCLDY    30  27  88 CALM      30.05S                  
BALTIMORE      CLEAR     28  24  85 W3        30.07S                  
ANNAPOLIS      NOT AVBL                                               
ANDREWS AFB    CLEAR     31  24  76 CALM      30.06S                  
PHILADELPHIA   CLEAR     34  22  61 W7        30.08S                  
HENDERSON NC   CLEAR     27  25  93 CALM      30.07R                  
GREENSBORO     CLEAR     33  28  81 CALM      30.04S                  
ROCKY MOUNT    CLEAR     32  31  96 CALM      30.08S                  
$$

VAZ100-240600-
MARINE
  
STATION/POSITION TIME  TEMP    WIND        PRES    WAVE   SWELL
                       AIR SEA DIR/SP/G            HT/PER HT/PER
                 (UTC) (F)     (DEG/KT/KT) (MB)    (FT/S) (FT/S)
BRANDYWINE LGT   0436   41     290/  8/ 10 1019.1R
CAPE MAY NJ      0448   41 50  290/  6/  7 1018.4R
LEWES DE         0448   33 49  240/  5/  7 1018.8R
15NM E FENWICK I 0450   43 57  300/  8/ 12 1019.1R   3/ 9   3/ 9
OCEAN-CITY-INLET 0448   38 52  300/  4/  5 1019.3S
WACHAPREAGUE VA  0448   31 48  320/  2/  3 1018.9F
THOMAS POINT MD  0500   40 51  280/  6/  6   N/A
GOOSES REEF MD   0450   43     290/  6/  8 1019.1S
COVE POINT MD    0448   39     260/  5/  6 1019.2F
SOLOMONS ISLAND  0448   38 53   10/  1/  2 1018.4S
BISHOPS HEAD MD  0448   41 46  340/  2/  3 1019.0S
PINEY POINT MD   0448          270/  6/  7   N/A
POTOMAC MD       0450   42     230/  6/  8 1018.2S
CAMBRIDGE MD     0442   30 49              1019.4S
LEWISETTA VA     0448   35 48  230/  3/  4 1018.9F
RAPPAHANNOCK LGT 0448          290/  5/  6 1019.3F
STINGRAY PT      0450   42     310/  2/  4 1019.1S
YORK RVR RNG VA  0448   43     350/  4/  5 1019.3F
YORKTOWN VA      0448   38 53  250/  1/  2 1018.6F
JAMESTOWN VA     0450           60/  4/  4   N/A
DOMINION TERM VA 0448   41      40/  3/  4 1018.9F
KIPTOPEKE VA     0448      52   60/  5/  5   N/A
CAPE HENRY VA    0448   41     270/  3/  4   N/A
WILLOUBY STN VA  0436   43      10/  4/  5 1018.6F
S CRANEY ISL VA  0448   38     250/  2/  2 1018.5S
CAPE HENRY BUOY  0500      59                N/A     3/ 9   2/11
1ST LANDING BUOY 0450   44     350/  6/  8 1018.6F
CAPE CHARLES BUO 0451      57                N/A     3/10   2/11
64NM E OF VA BCH 0450   48 59  340/  8/ 12 1018.6F   4/10   3/10
DUCK PIER NC     0448   45 58  330/ 11/ 12 1017.7F
44100 DUCK FRF   0445      60                N/A     4/10   2/11
44056 DUCK FRF   0500      60                N/A     3/ 9   2/11
OREGON INLET NC  0436   48 58  360/  5/  7 1017.8F
HATTERAS NC      0448   50 58   40/  9/ 13 1017.2F
DIAMOND SHLS NC  0500   56 72   30/ 14/ 17 1016.9
CAPE LOOKOUT NC  0500           20/ 12/ 14 1017.1F
$$
  

Return to Home page


Western Regional Climate Center, wrcc@dri.edu